| time (UTC) | temp F | wind direction | speed knots | gust knots | rain 1hr in | rain 24hr in | rain mn in | humidity % | barometer mb |
| 20260506201527 | 60 | 238 | 0.0 | 0.0 | 0.00 | 0.28 | 0.28 | 98 | 1005.2 |
| 20260506200025 | 60 | 360 | 0.0 | 0.0 | 0.00 | 0.28 | 0.28 | 99 | 1005.4 |
| 20260506194507 | 60 | 360 | 0.0 | 0.0 | 0.01 | 0.28 | 0.28 | 98 | 1005.5 |
| 20260506193004 | 60 | 243 | 0.0 | 0.0 | 0.03 | 0.28 | 0.28 | 98 | 1005.6 |
| 20260506191603 | 60 | 188 | 0.0 | 0.0 | 0.05 | 0.28 | 0.28 | 98 | 1005.9 |
| 20260506190044 | 60 | 261 | 0.0 | 0.0 | 0.07 | 0.28 | 0.28 | 98 | 1006.0 |
| 20260506184544 | 60 | 360 | 0.0 | 0.0 | 0.09 | 0.28 | 0.28 | 98 | 1006.1 |
| 20260506183030 | 60 | 220 | 0.0 | 0.0 | 0.11 | 0.26 | 0.26 | 98 | 1006.2 |
| 20260506181530 | 60 | 360 | 0.0 | 0.0 | 0.10 | 0.24 | 0.24 | 97 | 1006.3 |
| 20260506180030 | 60 | 265 | 0.0 | 0.0 | 0.07 | 0.21 | 0.21 | 97 | 1006.3 |
| 20260506174528 | 60 | 239 | 0.0 | 0.0 | 0.05 | 0.19 | 0.19 | 97 | 1006.4 |
| 20260506173030 | 60 | 360 | 0.0 | 0.0 | 0.02 | 0.15 | 0.15 | 96 | 1006.6 |
| 20260506171527 | 60 | 212 | 0.0 | 0.0 | 0.02 | 0.14 | 0.14 | 96 | 1006.5 |
| 20260506170025 | 60 | 211 | 0.0 | 0.0 | 0.04 | 0.14 | 0.14 | 96 | 1006.5 |
| 20260506164524 | 61 | 360 | 0.0 | 0.0 | 0.06 | 0.14 | 0.14 | 96 | 1006.6 |
| 20260506163006 | 61 | 213 | 0.0 | 0.0 | 0.07 | 0.13 | 0.13 | 95 | 1006.4 |
| 20260506161504 | 61 | 250 | 0.0 | 0.0 | 0.08 | 0.12 | 0.12 | 95 | 1006.5 |
| 20260506160057 | 61 | 262 | 0.0 | 0.0 | 0.07 | 0.10 | 0.10 | 94 | 1007.3 |
| 20260506154544 | 61 | 243 | 0.0 | 0.0 | 0.07 | 0.08 | 0.08 | 93 | 1007.7 |
| 20260506153022 | 62 | 360 | 0.0 | 0.0 | 0.06 | 0.06 | 0.06 | 92 | 1007.5 |
| 20260506151522 | 63 | 166 | 0.0 | 0.0 | 0.04 | 0.04 | 0.04 | 91 | 1007.3 |
| 20260506150002 | 63 | 169 | 0.0 | 0.0 | 0.03 | 0.03 | 0.03 | 89 | 1007.3 |
| 20260506144602 | 64 | 204 | 0.0 | 0.0 | 0.01 | 0.01 | 0.01 | 85 | 1007.7 |
| 20260506143041 | 64 | 159 | 0.0 | 0.0 | 0.00 | 0.00 | 0.00 | 84 | 1007.7 |
| 20260506141540 | 64 | 219 | 0.0 | 0.0 | 0.00 | 0.00 | 0.00 | 84 | 1007.6 |
| 20260506140022 | 64 | 360 | 0.0 | 0.0 | 0.00 | 0.00 | 0.00 | 84 | 1007.4 |
| 20260506134524 | 64 | 268 | 0.0 | 0.0 | 0.00 | 0.00 | 0.00 | 83 | 1007.5 |
| 20260506133004 | 64 | 217 | 0.0 | 0.0 | 0.00 | 0.00 | 0.00 | 82 | 1007.6 |
| 20260506131506 | 65 | 248 | 0.0 | 0.0 | 0.00 | 0.00 | 0.00 | 81 | 1007.8 |
| 20260506130052 | 65 | 223 | 0.0 | 0.0 | 0.00 | 0.00 | 0.00 | 81 | 1007.7 |
| 20260506124542 | 64 | 205 | 0.0 | 0.0 | 0.00 | 0.00 | 0.00 | 81 | 1007.7 |
| 20260506123022 | 64 | 178 | 0.0 | 0.0 | 0.00 | 0.00 | 0.00 | 81 | 1007.4 |
| 20260506121521 | 64 | 159 | 0.0 | 0.0 | 0.00 | 0.00 | 0.00 | 81 | 1007.5 |
| 20260506120008 | 64 | 202 | 0.0 | 0.0 | 0.00 | 0.00 | 0.00 | 82 | 1007.6 |
| 20260506114503 | 64 | 360 | 0.0 | 0.0 | 0.00 | 0.00 | 0.00 | 81 | 1007.6 |
| 20260506113046 | 64 | 223 | 0.0 | 0.0 | 0.00 | 0.00 | 0.00 | 82 | 1007.7 |
| 20260506111545 | 64 | 157 | 0.0 | 0.0 | 0.00 | 0.00 | 0.00 | 82 | 1007.5 |
| 20260506110027 | 64 | 360 | 0.0 | 0.0 | 0.00 | 0.00 | 0.00 | 82 | 1007.3 |
| 20260506104526 | 64 | 335 | 0.0 | 0.0 | 0.00 | 0.00 | 0.00 | 82 | 1007.1 |
| 20260506103009 | 64 | 166 | 0.0 | 0.0 | 0.00 | 0.00 | 0.00 | 82 | 1007.0 |
| 20260506101509 | 64 | 192 | 0.0 | 0.0 | 0.00 | 0.00 | 0.00 | 82 | 1007.1 |
| 20260506100049 | 64 | 205 | 0.0 | 0.0 | 0.00 | 0.00 | 0.00 | 81 | 1007.3 |
| 20260506094612 | 64 | 170 | 0.0 | 0.0 | 0.00 | 0.00 | 0.00 | 81 | 1007.1 |
| 20260506093037 | 64 | 283 | 0.0 | 0.0 | 0.00 | 0.00 | 0.00 | 80 | 1007.1 |
| 20260506091532 | 65 | 175 | 0.0 | 0.0 | 0.00 | 0.00 | 0.00 | 78 | 1007.0 |
| 20260506090012 | 65 | 35 | 0.0 | 0.0 | 0.00 | 0.00 | 0.00 | 77 | 1007.2 |
| 20260506084513 | 65 | 252 | 0.0 | 0.0 | 0.00 | 0.00 | 0.00 | 77 | 1007.2 |
| 20260506083058 | 65 | 188 | 0.0 | 0.0 | 0.00 | 0.00 | 0.00 | 76 | 1007.3 |
| 20260506081556 | 65 | 360 | 0.0 | 0.0 | 0.00 | 0.00 | 0.00 | 75 | 1007.3 |
| 20260506073041 | 66 | 190 | 0.0 | 0.0 | 0.00 | 0.00 | 0.00 | 71 | 1007.5 |
| 20260506071545 | 66 | 167 | 0.0 | 0.0 | 0.00 | 0.00 | 0.00 | 70 | 1007.6 |
| 20260506061539 | 67 | 228 | 0.0 | 0.0 | 0.00 | 0.00 | 0.00 | 68 | 1008.0 |
| 20260506044544 | 67 | 188 | 0.0 | 0.0 | 0.00 | 0.00 | 0.00 | 66 | 1008.4 |
| 20260506043027 | 68 | 190 | 0.0 | 0.0 | 0.00 | 0.00 | 0.00 | 66 | 1008.5 |
| 20260506041526 | 68 | 161 | 0.0 | 0.0 | 0.00 | 0.00 | 0.00 | 65 | 1008.2 |
| 20260506040010 | 69 | 246 | 0.0 | 0.0 | 0.00 | 0.00 | 0.00 | 63 | 1008.4 |
| 20260506034511 | 69 | 131 | 0.0 | 0.0 | 0.00 | 0.00 | 0.00 | 61 | 1008.4 |
| 20260506033051 | 70 | 259 | 0.0 | 0.0 | 0.00 | 0.00 | 0.00 | 59 | 1008.2 |
| 20260506031557 | 70 | 188 | 0.0 | 0.0 | 0.00 | 0.00 | 0.00 | 57 | 1008.2 |
| 20260506030036 | 71 | 170 | 0.0 | 0.0 | 0.00 | 0.00 | 0.00 | 55 | 1008.1 |
| 20260506024543 | 72 | 196 | 0.0 | 0.0 | 0.00 | 0.00 | 0.00 | 54 | 1008.2 |
| 20260506023014 | 72 | 205 | 0.0 | 0.0 | 0.00 | 0.00 | 0.00 | 54 | 1008.2 |
| 20260506021514 | 72 | 226 | 0.0 | 0.0 | 0.00 | 0.00 | 0.00 | 53 | 1008.1 |
| 20260506020056 | 73 | 178 | 0.0 | 0.0 | 0.00 | 0.00 | 0.00 | 52 | 1008.1 |
| 20260506014556 | 73 | 169 | 0.0 | 0.0 | 0.00 | 0.00 | 0.00 | 52 | 1008.1 |
| 20260506013044 | 73 | 187 | 0.0 | 0.0 | 0.00 | 0.00 | 0.00 | 52 | 1007.8 |
| 20260506011544 | 73 | 82 | 0.0 | 0.0 | 0.00 | 0.00 | 0.00 | 51 | 1007.6 |
| 20260506010046 | 74 | 190 | 0.0 | 0.0 | 0.00 | 0.00 | 0.00 | 49 | 1007.5 |
| 20260506004542 | 75 | 179 | 0.0 | 0.0 | 0.00 | 0.00 | 0.00 | 47 | 1007.3 |
| 20260506003042 | 75 | 360 | 0.0 | 0.0 | 0.00 | 0.00 | 0.00 | 46 | 1007.2 |
| 20260506001542 | 75 | 160 | 0.0 | 0.0 | 0.00 | 0.00 | 0.00 | 45 | 1007.0 |
| 20260506000041 | 76 | 177 | 0.0 | 0.0 | 0.00 | 0.00 | 0.00 | 43 | 1007.0 |
| 20260505234547 | 76 | 360 | 0.0 | 0.0 | 0.00 | 0.00 | 0.00 | 43 | 1006.9 |
| 20260505233023 | 76 | 260 | 0.0 | 0.0 | 0.00 | 0.00 | 0.00 | 43 | 1006.8 |
| 20260505231523 | 77 | 225 | 0.0 | 0.0 | 0.00 | 0.00 | 0.00 | 42 | 1006.8 |
| 20260505230015 | 77 | 217 | 0.0 | 0.0 | 0.00 | 0.00 | 0.00 | 43 | 1006.7 |
| 20260505224504 | 77 | 116 | 0.0 | 0.0 | 0.00 | 0.00 | 0.00 | 43 | 1006.6 |
| 20260505223046 | 77 | 215 | 0.0 | 0.0 | 0.00 | 0.00 | 0.00 | 42 | 1006.5 |
| 20260505221546 | 78 | 225 | 0.0 | 0.0 | 0.00 | 0.00 | 0.00 | 44 | 1006.3 |
| 20260505220032 | 78 | 167 | 0.0 | 0.0 | 0.00 | 0.00 | 0.00 | 41 | 1006.3 |
| 20260505214528 | 79 | 360 | 0.0 | 0.0 | 0.00 | 0.00 | 0.00 | 41 | 1006.3 |
| 20260505213011 | 79 | 187 | 0.0 | 0.0 | 0.00 | 0.00 | 0.00 | 41 | 1006.3 |
| 20260505211513 | 80 | 223 | 0.0 | 0.0 | 0.00 | 0.00 | 0.00 | 39 | 1006.1 |
| 20260505210051 | 81 | 234 | 0.0 | 0.0 | 0.00 | 0.00 | 0.00 | 39 | 1006.1 |
| 20260505204553 | 81 | 360 | 0.0 | 0.0 | 0.00 | 0.00 | 0.00 | 38 | 1005.9 |
| 20260505203032 | 81 | 237 | 0.0 | 0.0 | 0.00 | 0.00 | 0.00 | 38 | 1006.1 |